| time (UTC) | temp C | wind direction | speed KPH | gust KPH | rain 1hr cm | rain 24hr cm | rain mn cm | humidity % | barometer mb |
| 20260507071528 | 11 | 227 | 0.0 | 1.6 | 0.00 | 0.00 | 0.00 | 89 | 1006.6 |
| 20260507070031 | 11 | 226 | 0.0 | 0.0 | 0.00 | 0.00 | 0.00 | 90 | 1006.7 |
| 20260507064539 | 11 | 226 | 0.0 | 3.2 | 0.00 | 0.00 | 0.00 | 90 | 1006.6 |
| 20260507063020 | 11 | 216 | 0.0 | 0.0 | 0.00 | 0.00 | 0.00 | 91 | 1006.7 |
| 20260507061524 | 11 | 227 | 0.0 | 3.2 | 0.00 | 0.00 | 0.00 | 91 | 1006.6 |
| 20260507060026 | 11 | 213 | 0.0 | 1.6 | 0.00 | 0.00 | 0.00 | 91 | 1006.7 |
| 20260507054527 | 12 | 215 | 0.0 | 3.2 | 0.00 | 0.00 | 0.00 | 90 | 1006.8 |
| 20260507053026 | 12 | 219 | 0.0 | 3.2 | 0.00 | 0.00 | 0.00 | 91 | 1007.0 |
| 20260507051524 | 12 | 234 | 1.6 | 6.4 | 0.00 | 0.00 | 0.00 | 91 | 1006.8 |
| 20260507050037 | 12 | 218 | 0.0 | 6.4 | 0.00 | 0.00 | 0.00 | 91 | 1006.9 |
| 20260507044529 | 13 | 217 | 0.0 | 3.2 | 0.00 | 0.00 | 0.00 | 93 | 1007.0 |
| 20260507043026 | 13 | 278 | 0.0 | 1.6 | 0.00 | 0.00 | 0.00 | 93 | 1006.9 |
| 20260507041529 | 13 | 180 | 0.0 | 3.2 | 0.00 | 0.00 | 0.00 | 93 | 1006.9 |
| 20260507040026 | 13 | 186 | 0.0 | 3.2 | 0.00 | 0.00 | 0.00 | 94 | 1007.0 |
| 20260507034526 | 14 | 181 | 1.6 | 3.2 | 0.00 | 0.00 | 0.00 | 94 | 1006.8 |
| 20260507033028 | 14 | 180 | 0.0 | 1.6 | 0.00 | 0.00 | 0.00 | 93 | 1006.5 |
| 20260507031525 | 14 | 180 | 1.6 | 6.4 | 0.00 | 0.00 | 0.00 | 93 | 1006.5 |
| 20260507030029 | 14 | 188 | 1.6 | 4.8 | 0.00 | 0.00 | 0.00 | 92 | 1006.1 |
| 20260507024530 | 14 | 159 | 1.6 | 4.8 | 0.00 | 0.00 | 0.00 | 93 | 1006.1 |
| 20260507023026 | 14 | 180 | 1.6 | 9.7 | 0.00 | 0.00 | 0.00 | 93 | 1006.4 |
| 20260507021527 | 14 | 184 | 1.6 | 4.8 | 0.00 | 0.00 | 0.00 | 93 | 1006.3 |
| 20260507020029 | 14 | 190 | 0.0 | 3.2 | 0.00 | 0.00 | 0.00 | 93 | 1006.1 |
| 20260507014521 | 13 | 188 | 1.6 | 4.8 | 0.00 | 0.00 | 0.00 | 93 | 1006.2 |
| 20260507013025 | 13 | 171 | 0.0 | 4.8 | 0.00 | 0.00 | 0.00 | 93 | 1006.2 |
| 20260507011512 | 13 | 221 | 0.0 | 4.8 | 0.00 | 0.00 | 0.00 | 93 | 1006.3 |
| 20260507010021 | 13 | 156 | 1.6 | 4.8 | 0.00 | 0.00 | 0.00 | 93 | 1006.4 |
| 20260507004522 | 13 | 202 | 1.6 | 8.0 | 0.00 | 0.00 | 0.00 | 93 | 1006.5 |
| 20260507003025 | 13 | 195 | 0.0 | 6.4 | 0.00 | 0.00 | 0.00 | 93 | 1006.5 |
| 20260507001513 | 14 | 186 | 1.6 | 4.8 | 0.00 | 0.00 | 0.00 | 93 | 1006.5 |
| 20260507000012 | 14 | 195 | 1.6 | 9.7 | 0.00 | 0.00 | 0.00 | 93 | 1006.2 |
| 20260506234521 | 14 | 190 | 1.6 | 6.4 | 0.00 | 0.00 | 0.00 | 93 | 1006.1 |
| 20260506233024 | 14 | 196 | 1.6 | 4.8 | 0.00 | 0.00 | 0.00 | 93 | 1006.1 |
| 20260506231527 | 14 | 197 | 1.6 | 6.4 | 0.00 | 0.00 | 0.00 | 92 | 1006.0 |
| 20260506230022 | 14 | 207 | 3.2 | 6.4 | 0.00 | 0.00 | 0.00 | 92 | 1006.2 |
| 20260506224518 | 14 | 205 | 1.6 | 9.7 | 0.00 | 0.00 | 0.00 | 92 | 1006.1 |
| 20260506223021 | 15 | 238 | 1.6 | 6.4 | 0.00 | 0.00 | 0.00 | 92 | 1006.2 |
| 20260506221504 | 15 | 240 | 0.0 | 6.4 | 0.00 | 0.00 | 0.00 | 91 | 1006.4 |
| 20260506220015 | 15 | 169 | 0.0 | 8.0 | 0.00 | 0.00 | 0.00 | 90 | 1006.5 |
| 20260506214517 | 15 | 193 | 3.2 | 6.4 | 0.00 | 0.00 | 0.00 | 88 | 1006.8 |
| 20260506213018 | 15 | 212 | 3.2 | 9.7 | 0.00 | 0.00 | 0.00 | 88 | 1007.0 |
| 20260506211529 | 15 | 185 | 1.6 | 8.0 | 0.00 | 0.00 | 0.00 | 87 | 1007.0 |
| 20260506210008 | 15 | 183 | 1.6 | 9.7 | 0.00 | 0.00 | 0.00 | 87 | 1006.9 |
| 20260506204514 | 15 | 159 | 3.2 | 12.9 | 0.00 | 0.00 | 0.00 | 86 | 1007.1 |
| 20260506203017 | 15 | 99 | 3.2 | 14.5 | 0.00 | 0.00 | 0.00 | 87 | 1007.1 |
| 20260506201529 | 15 | 167 | 0.0 | 6.4 | 0.00 | 0.00 | 0.00 | 87 | 1007.2 |
| 20260506200026 | 16 | 176 | 0.0 | 3.2 | 0.00 | 0.00 | 0.00 | 87 | 1007.1 |
| 20260506194512 | 16 | 157 | 3.2 | 8.0 | 0.00 | 0.00 | 0.00 | 83 | 1007.2 |
| 20260506193022 | 17 | 184 | 3.2 | 6.4 | 0.00 | 0.00 | 0.00 | 80 | 1007.3 |
| 20260506191519 | 17 | 162 | 3.2 | 8.0 | 0.00 | 0.00 | 0.00 | 77 | 1007.3 |
| 20260506190027 | 18 | 183 | 1.6 | 16.1 | 0.00 | 0.00 | 0.00 | 71 | 1007.2 |
| 20260506184525 | 19 | 217 | 3.2 | 16.1 | 0.00 | 0.00 | 0.00 | 67 | 1007.4 |
| 20260506183013 | 20 | 155 | 4.8 | 17.7 | 0.00 | 0.00 | 0.00 | 62 | 1007.5 |
| 20260506181519 | 21 | 243 | 4.8 | 16.1 | 0.00 | 0.00 | 0.00 | 59 | 1007.3 |
| 20260506180025 | 21 | 207 | 3.2 | 19.3 | 0.00 | 0.00 | 0.00 | 55 | 1007.6 |
| 20260506174531 | 21 | 184 | 3.2 | 17.7 | 0.00 | 0.00 | 0.00 | 55 | 1007.6 |
| 20260506173011 | 22 | 179 | 3.2 | 14.5 | 0.00 | 0.00 | 0.00 | 56 | 1007.8 |
| 20260506171530 | 22 | 192 | 1.6 | 9.7 | 0.00 | 0.00 | 0.00 | 59 | 1007.7 |
| 20260506170021 | 21 | 148 | 1.6 | 11.3 | 0.00 | 0.00 | 0.00 | 59 | 1007.9 |
| 20260506164524 | 21 | 188 | 0.0 | 4.8 | 0.00 | 0.00 | 0.00 | 59 | 1008.1 |
| 20260506163030 | 21 | 167 | 1.6 | 6.4 | 0.00 | 0.00 | 0.00 | 58 | 1008.2 |
| 20260506161514 | 21 | 167 | 3.2 | 14.5 | 0.00 | 0.00 | 0.00 | 57 | 1008.7 |
| 20260506160018 | 21 | 165 | 1.6 | 11.3 | 0.00 | 0.00 | 0.00 | 57 | 1008.8 |
| 20260506154525 | 21 | 210 | 8.0 | 25.7 | 0.00 | 0.00 | 0.00 | 56 | 1009.1 |
| 20260506153026 | 22 | 230 | 3.2 | 6.4 | 0.00 | 0.00 | 0.00 | 57 | 1009.3 |
| 20260506151527 | 22 | 233 | 1.6 | 12.9 | 0.00 | 0.00 | 0.00 | 58 | 1009.4 |
| 20260506150016 | 21 | 195 | 1.6 | 9.7 | 0.00 | 0.00 | 0.00 | 61 | 1009.5 |
| 20260506144519 | 21 | 231 | 1.6 | 8.0 | 0.00 | 0.00 | 0.00 | 63 | 1009.5 |
| 20260506143023 | 20 | 217 | 1.6 | 16.1 | 0.00 | 0.00 | 0.00 | 65 | 1009.5 |
| 20260506141528 | 20 | 198 | 3.2 | 8.0 | 0.00 | 0.00 | 0.00 | 64 | 1009.3 |
| 20260506140033 | 20 | 155 | 1.6 | 8.0 | 0.00 | 0.00 | 0.00 | 66 | 1009.6 |
| 20260506134521 | 18 | 193 | 0.0 | 8.0 | 0.00 | 0.00 | 0.00 | 69 | 1009.5 |
| 20260506133029 | 18 | 164 | 0.0 | 4.8 | 0.00 | 0.00 | 0.00 | 72 | 1010.0 |
| 20260506131526 | 17 | 166 | 3.2 | 14.5 | 0.00 | 0.00 | 0.00 | 72 | 1010.1 |
| 20260506130010 | 17 | 189 | 1.6 | 9.7 | 0.00 | 0.00 | 0.00 | 72 | 1009.9 |
| 20260506124520 | 17 | 205 | 1.6 | 12.9 | 0.00 | 0.00 | 0.00 | 74 | 1009.8 |
| 20260506123020 | 16 | 244 | 1.6 | 9.7 | 0.00 | 0.00 | 0.00 | 76 | 1010.2 |
| 20260506121525 | 16 | 193 | 1.6 | 8.0 | 0.00 | 0.00 | 0.00 | 75 | 1010.2 |
| 20260506120029 | 16 | 194 | 0.0 | 12.9 | 0.00 | 0.00 | 0.00 | 77 | 1010.3 |
| 20260506114531 | 16 | 197 | 1.6 | 9.7 | 0.00 | 0.00 | 0.00 | 77 | 1010.4 |
| 20260506113020 | 16 | 195 | 3.2 | 8.0 | 0.00 | 0.00 | 0.00 | 77 | 1010.8 |
| 20260506111523 | 16 | 204 | 1.6 | 4.8 | 0.00 | 0.00 | 0.00 | 77 | 1010.3 |
| 20260506110032 | 15 | 176 | 3.2 | 9.7 | 0.00 | 0.00 | 0.00 | 78 | 1010.6 |
| 20260506104531 | 15 | 195 | 0.0 | 4.8 | 0.00 | 0.00 | 0.00 | 80 | 1010.6 |
| 20260506103020 | 15 | 238 | 0.0 | 8.0 | 0.00 | 0.00 | 0.00 | 79 | 1010.6 |
| 20260506101521 | 15 | 188 | 1.6 | 4.8 | 0.00 | 0.00 | 0.00 | 79 | 1010.6 |
| 20260506100027 | 15 | 185 | 0.0 | 8.0 | 0.00 | 0.00 | 0.00 | 78 | 1010.5 |
| 20260506094513 | 15 | 226 | 0.0 | 4.8 | 0.00 | 0.00 | 0.00 | 79 | 1010.2 |
| 20260506093016 | 15 | 194 | 0.0 | 6.4 | 0.00 | 0.00 | 0.00 | 78 | 1010.5 |
| 20260506091521 | 15 | 162 | 1.6 | 8.0 | 0.00 | 0.00 | 0.00 | 78 | 1010.4 |
| 20260506090022 | 15 | 187 | 1.6 | 11.3 | 0.00 | 0.00 | 0.00 | 77 | 1010.4 |
| 20260506084510 | 15 | 176 | 0.0 | 9.7 | 0.00 | 0.00 | 0.00 | 76 | 1010.6 |
| 20260506083013 | 15 | 156 | 1.6 | 6.4 | 0.00 | 0.00 | 0.00 | 75 | 1010.4 |
| 20260506081516 | 15 | 156 | 3.2 | 9.7 | 0.00 | 0.00 | 0.00 | 75 | 1010.3 |
| 20260506073014 | 16 | 187 | 1.6 | 8.0 | 0.00 | 0.00 | 0.00 | 72 | 1010.2 |